Regional Weather Roundup
Issued by NWS

Home | Current Version | Previous Version | Graphics & Text | Print | Product List | Glossary On
Versions: 1 2 3 4 5 6 7 8 9 10 11 12 13 14 15 16 17 18 19 20 21 22 23 24 25 26 27 28 29 30 31 32 33 34 35 36 37 38 39 40 41 42 43 44 45 46 47 48 49 50
871
ASUS43 KLMK 100010
RWRKY
KENTUCKY REGIONAL WEATHER ROUNDUP
NATIONAL WEATHER SERVICE LOUISVILLE KY
700 PM EST TUE FEB 09 2016

NOTE "FAIR" INDICATES FEW OR NO CLOUDS BELOW 12,000 FEET
WITH NO SIGNIFICANT WEATHER AND/OR OBSTRUCTIONS TO VISIBILITY.

KYZ001>023-026-027-061>063-070>075-100100-
WESTERN AND SOUTH CENTRAL KENTUCKY

CITY           SKY/WX    TMP DP  RH WIND       PRES   REMARKS
PADUCAH        CLOUDY    23  12  62 MISG      30.09R
HENDERSON      MOCLDY    19  12  73 W13       30.06R WCI   7
OWENSBORO      LGT SNOW  19  16  86 W12       30.05R FOG     WCI   7
HOPKINSVILLE   FLURRIES  21  17  83 NW9       30.06R WCI  11
BOWLING GREEN  FLURRIES  22  15  75 W12       30.04R WCI  10
GLASGOW        FLURRIES  21  16  81 W6        30.01R WCI  14
$$

KYZ024-025-028>034-038-045-046-053-100100-
NORTH CENTRAL KENTUCKY

CITY           SKY/WX    TMP DP  RH WIND       PRES   REMARKS
LOUISVILLE/SDF CLOUDY    22  14  71 W14       29.98R WCI   9
LOUISVILLE/LOU CLOUDY    22  14  71 W15G21    29.98R WCI   9
FORT KNOX      LGT SNOW  19  14  79 W9        29.96R WCI   9
$$

KYZ035>037-039>044-047>052-055>060-089>105-100100-
NORTHEAST KENTUCKY

CITY           SKY/WX    TMP DP  RH WIND       PRES   REMARKS
LEXINGTON      CLOUDY    22  14  71 W13G20    29.91R WCI  10
COVINGTON      LGT SNOW  22  18  85 W10       29.88R FOG     WCI  11
FRANKFORT      NOT AVBL
$$

KYZ054-064>069-076>088-106>120-100100-
SOUTHEAST KENTUCKY

CITY           SKY/WX    TMP DP  RH WIND       PRES   REMARKS
JACKSON        CLOUDY    22  13  68 W13       29.87R WCI  10
LONDON         LGT SNOW  22  16  78 W7        29.91R WCI  13
SOMERSET       LGT SNOW  23  18  80 W13       29.97R WCI  11
MIDDLESBORO    CLOUDY    24  17  73 NW3       29.92R
MONTICELLO     FLURRIES  23  17  78 W10       29.98R WCI  12
$$





USA.gov is the U.S. government's official web portal to all federal, state and local government web resources and services.